WXM80 ListenWXM80 Stop

You find our weather info also at:

UK Metoffice

WeatherCloud

Weather Underground

Northeastern Weather Network

AWEKAS

Citizen Weather Observer Program (CWOP)

HAMweather, WeatherForYou, PWS Weather


Weather Underground History page Text

Daily Summary for December 11, 2016 Units:  English    Metric   Both
« Previous Day
Next Day »
Daily Weekly Monthly Yearly Custom
  High: Low: Average:
Temperature: 37.4 °F 29.6 °F 32.5 °F
Dew Point: 31.1 °F 19.9 °F 23.9 °F
Humidity: 94 % 51 % 71 %
Wind Speed: 7.4 mph 0.0 mph 2.1 mph
Wind Gust: 12.0 mph - -
Wind:- - WSW
Pressure: 30.54 in 30.20 in -
Precipitation: 0.00 in    
Historical Graphs
 
 
Tabular Data for December 11, 2016
Time Temperature Dew Point Pressure Wind Wind Speed Wind Gust Humidity Rainfall Rate (Hourly)
00:00 31.0 °F 23.7 °F 30.43 in WNW 2.0 mph 4.6 mph 74 % 0.00 in
00:05 31.0 °F 23.7 °F 30.42 in West 2.1 mph 7.0 mph 74 % 0.00 in
00:10 31.0 °F 23.4 °F 30.42 in West 1.1 mph 6.9 mph 73 % 0.00 in
00:16 30.9 °F 23.3 °F 30.42 in WNW 1.5 mph 3.5 mph 73 % 0.00 in
00:21 30.8 °F 23.2 °F 30.42 in WNW 4.2 mph 11.5 mph 73 % 0.00 in
00:26 30.8 °F 23.2 °F 30.42 in WSW 2.3 mph 8.1 mph 73 % 0.00 in
00:31 30.8 °F 23.2 °F 30.43 in WNW 4.0 mph 8.1 mph 73 % 0.00 in
00:36 30.8 °F 23.2 °F 30.42 in NW 6.3 mph 10.4 mph 73 % 0.00 in
00:41 30.8 °F 23.2 °F 30.42 in West 3.3 mph 4.6 mph 73 % 0.00 in
00:46 30.8 °F 22.8 °F 30.43 in WNW 2.9 mph 9.0 mph 72 % 0.00 in
00:51 30.8 °F 22.8 °F 30.43 in WNW 3.3 mph 9.0 mph 72 % 0.00 in
00:56 30.8 °F 22.8 °F 30.42 in West 3.5 mph 8.1 mph 72 % 0.00 in
01:01 30.8 °F 22.8 °F 30.43 in WSW 3.7 mph 6.0 mph 72 % 0.00 in
01:06 30.8 °F 22.8 °F 30.43 in WNW 5.1 mph 9.2 mph 72 % 0.00 in
01:12 30.8 °F 22.2 °F 30.43 in WNW 3.6 mph 12.0 mph 70 % 0.00 in
01:17 30.9 °F 22.3 °F 30.43 in WSW 7.4 mph 11.5 mph 70 % 0.00 in
01:22 30.9 °F 22.3 °F 30.43 in WNW 5.3 mph 9.2 mph 70 % 0.00 in
01:27 30.9 °F 22.3 °F 30.43 in West 4.5 mph 8.1 mph 70 % 0.00 in
01:32 31.0 °F 22.4 °F 30.43 in West 5.5 mph 11.5 mph 70 % 0.00 in
01:37 30.9 °F 22.6 °F 30.43 in WNW 4.1 mph 10.0 mph 71 % 0.00 in
01:42 30.9 °F 22.6 °F 30.43 in NW 5.5 mph 11.5 mph 71 % 0.00 in
01:47 30.8 °F 22.5 °F 30.44 in WNW 5.1 mph 10.4 mph 71 % 0.00 in
01:52 30.8 °F 22.8 °F 30.44 in WNW 4.4 mph 6.9 mph 72 % 0.00 in
01:57 30.8 °F 22.5 °F 30.44 in West 2.9 mph 4.6 mph 71 % 0.00 in
02:03 30.8 °F 22.5 °F 30.44 in WNW 6.2 mph 8.1 mph 71 % 0.00 in
02:08 30.7 °F 22.7 °F 30.44 in West 4.6 mph 8.1 mph 72 % 0.00 in
02:13 30.7 °F 22.4 °F 30.45 in WNW 3.1 mph 8.1 mph 71 % 0.00 in
02:18 30.6 °F 22.6 °F 30.45 in WNW 4.1 mph 8.1 mph 72 % 0.00 in
02:23 30.6 °F 22.6 °F 30.45 in WNW 6.6 mph 9.2 mph 72 % 0.00 in
02:28 30.6 °F 22.3 °F 30.45 in WNW 4.9 mph 8.1 mph 71 % 0.00 in
02:33 30.5 °F 22.2 °F 30.45 in WNW 3.8 mph 8.1 mph 71 % 0.00 in
02:38 30.5 °F 21.9 °F 30.44 in WNW 4.0 mph 9.2 mph 70 % 0.00 in
02:43 30.4 °F 21.8 °F 30.44 in NNW 2.2 mph 4.6 mph 70 % 0.00 in
02:48 30.4 °F 21.8 °F 30.44 in WNW 2.3 mph 9.2 mph 70 % 0.00 in
02:54 30.4 °F 21.8 °F 30.44 in West 5.6 mph 10.4 mph 70 % 0.00 in
02:59 30.4 °F 22.1 °F 30.44 in WNW 3.5 mph 5.8 mph 71 % 0.00 in
03:04 30.4 °F 21.8 °F 30.45 in WSW 5.2 mph 9.2 mph 70 % 0.00 in
03:09 30.4 °F 21.8 °F 30.45 in NW 5.4 mph 11.5 mph 70 % 0.00 in
03:14 30.4 °F 21.4 °F 30.45 in West 3.9 mph 7.0 mph 69 % 0.00 in
03:19 30.4 °F 21.4 °F 30.45 in WNW 3.5 mph 6.9 mph 69 % 0.00 in
03:24 30.5 °F 21.9 °F 30.45 in WSW 3.8 mph 9.0 mph 70 % 0.00 in
03:29 30.4 °F 21.8 °F 30.45 in WNW 3.1 mph 8.1 mph 70 % 0.00 in
03:34 30.4 °F 21.8 °F 30.46 in WNW 4.0 mph 6.0 mph 70 % 0.00 in
03:39 30.3 °F 21.3 °F 30.45 in WNW 4.0 mph 9.2 mph 69 % 0.00 in
03:45 30.3 °F 21.3 °F 30.45 in WNW 2.0 mph 4.0 mph 69 % 0.00 in
03:49 30.2 °F 21.3 °F 30.45 in WNW 2.0 mph 10.0 mph 69 % 0.00 in
03:54 30.2 °F 21.2 °F 30.45 in WNW 2.0 mph 8.0 mph 69 % 0.00 in
04:00 30.1 °F 20.8 °F 30.45 in WNW 2.5 mph 3.5 mph 68 % 0.00 in
04:05 30.1 °F 21.2 °F 30.45 in NW 2.0 mph 6.0 mph 69 % 0.00 in
04:10 30.1 °F 21.1 °F 30.45 in NW 3.0 mph 9.0 mph 69 % 0.00 in
04:14 30.0 °F 21.1 °F 30.45 in WNW 5.0 mph 9.0 mph 69 % 0.00 in
04:19 29.9 °F 21.0 °F 30.46 in West 2.6 mph 4.6 mph 69 % 0.00 in
04:25 29.9 °F 20.9 °F 30.45 in WNW 3.0 mph 8.0 mph 69 % 0.00 in
04:30 29.8 °F 20.9 °F 30.46 in WNW 5.0 mph 10.0 mph 69 % 0.00 in
04:34 29.7 °F 21.1 °F 30.46 in WSW 5.2 mph 11.5 mph 70 % 0.00 in
04:40 29.7 °F 21.1 °F 30.46 in WNW 5.0 mph 10.0 mph 70 % 0.00 in
04:45 29.7 °F 21.4 °F 30.46 in WNW 5.0 mph 12.0 mph 71 % 0.00 in
04:49 29.7 °F 21.4 °F 30.47 in WNW 3.2 mph 10.4 mph 71 % 0.00 in
04:55 29.7 °F 21.4 °F 30.47 in WNW 6.0 mph 9.0 mph 71 % 0.00 in
05:00 29.7 °F 21.1 °F 30.46 in West 3.4 mph 8.1 mph 70 % 0.00 in
05:05 29.7 °F 21.1 °F 30.46 in West 2.8 mph 6.9 mph 70 % 0.00 in
05:10 29.7 °F 20.8 °F 30.47 in NW 3.1 mph 6.0 mph 69 % 0.00 in
05:15 29.6 °F 20.3 °F 30.47 in West 4.0 mph 8.1 mph 68 % 0.00 in
05:20 29.6 °F 20.0 °F 30.47 in NW 2.6 mph 4.6 mph 67 % 0.00 in
05:25 29.7 °F 20.4 °F 30.47 in NW 2.7 mph 6.9 mph 68 % 0.00 in
05:30 29.7 °F 20.4 °F 30.47 in West 1.7 mph 3.5 mph 68 % 0.00 in
05:35 29.7 °F 20.1 °F 30.47 in WNW 2.3 mph 6.9 mph 67 % 0.00 in
05:40 29.7 °F 20.4 °F 30.47 in NNW 1.3 mph 5.8 mph 68 % 0.00 in
05:45 29.8 °F 20.5 °F 30.48 in NW 4.9 mph 6.0 mph 68 % 0.00 in
05:51 29.8 °F 20.5 °F 30.48 in West 1.8 mph 3.5 mph 68 % 0.00 in
05:56 29.9 °F 20.6 °F 30.49 in WSW 2.8 mph 5.0 mph 68 % 0.00 in
06:01 29.9 °F 20.6 °F 30.48 in WNW 4.6 mph 10.4 mph 68 % 0.00 in
06:06 29.9 °F 20.6 °F 30.48 in WNW 5.0 mph 5.0 mph 68 % 0.00 in
06:11 30.0 °F 20.7 °F 30.49 in NW 2.3 mph 5.8 mph 68 % 0.00 in
06:16 30.0 °F 20.4 °F 30.49 in NW 4.4 mph 9.2 mph 67 % 0.00 in
06:21 30.0 °F 20.0 °F 30.49 in North 7.2 mph 9.2 mph 66 % 0.00 in
06:26 30.1 °F 20.1 °F 30.49 in NW 2.8 mph 9.2 mph 66 % 0.00 in
06:31 30.1 °F 20.5 °F 30.49 in NNW 2.5 mph 3.5 mph 67 % 0.00 in
06:36 30.1 °F 20.5 °F 30.49 in NW 2.5 mph 6.9 mph 67 % 0.00 in
06:41 30.1 °F 20.5 °F 30.50 in NW 2.5 mph 3.5 mph 67 % 0.00 in
06:47 30.1 °F 20.1 °F 30.50 in NW 5.1 mph 9.2 mph 66 % 0.00 in
06:52 30.2 °F 20.2 °F 30.50 in WNW 4.4 mph 9.2 mph 66 % 0.00 in
06:57 30.2 °F 20.6 °F 30.50 in WNW 1.9 mph 6.9 mph 67 % 0.00 in
07:02 30.2 °F 20.6 °F 30.50 in WNW 2.3 mph 4.6 mph 67 % 0.00 in
07:07 30.2 °F 20.6 °F 30.50 in NW 2.4 mph 4.6 mph 67 % 0.00 in
07:12 30.2 °F 20.6 °F 30.50 in NNW 1.7 mph 3.5 mph 67 % 0.00 in
07:17 30.2 °F 20.6 °F 30.50 in NW 2.0 mph 3.5 mph 67 % 0.00 in
07:22 30.2 °F 20.6 °F 30.50 in WSW 2.0 mph 6.9 mph 67 % 0.00 in
07:27 30.2 °F 20.6 °F 30.50 in WNW 2.6 mph 4.0 mph 67 % 0.00 in
07:32 30.2 °F 20.9 °F 30.50 in WNW 1.0 mph 1.2 mph 68 % 0.00 in
07:38 30.2 °F 20.9 °F 30.51 in Calm   3.5 mph 68 % 0.00 in
07:43 30.3 °F 21.0 °F 30.51 in West 1.0 mph 5.8 mph 68 % 0.00 in
07:48 30.3 °F 21.0 °F 30.51 in WNW 0.1 mph 3.5 mph 68 % 0.00 in
07:53 30.3 °F 21.0 °F 30.51 in NW 1.0 mph 3.5 mph 68 % 0.00 in
07:58 30.4 °F 21.1 °F 30.51 in WNW 1.9 mph 3.5 mph 68 % 0.00 in
08:03 30.5 °F 21.2 °F 30.51 in West 1.2 mph 2.0 mph 68 % 0.00 in
08:08 30.5 °F 21.2 °F 30.51 in West 1.4 mph 4.6 mph 68 % 0.00 in
08:13 30.6 °F 21.3 °F 30.52 in Calm   1.2 mph 68 % 0.00 in
08:18 30.6 °F 21.6 °F 30.52 in West 0.3 mph 3.5 mph 69 % 0.00 in
08:23 30.6 °F 21.6 °F 30.53 in West 0.7 mph 3.5 mph 69 % 0.00 in
08:29 30.7 °F 22.1 °F 30.53 in West 1.9 mph 3.5 mph 70 % 0.00 in
08:34 30.7 °F 22.4 °F 30.53 in WSW 3.0 mph 3.5 mph 71 % 0.00 in
08:39 30.8 °F 22.2 °F 30.53 in WSW 0.9 mph 2.3 mph 70 % 0.00 in
08:44 30.8 °F 22.5 °F 30.53 in WSW 0.1 mph 1.2 mph 71 % 0.00 in
08:49 30.9 °F 22.3 °F 30.53 in WSW 2.1 mph 3.5 mph 70 % 0.00 in
08:54 31.0 °F 22.4 °F 30.53 in SW 1.9 mph 4.6 mph 70 % 0.00 in
08:59 31.1 °F 22.5 °F 30.54 in SW 3.2 mph 4.0 mph 70 % 0.00 in
09:04 31.2 °F 22.2 °F 30.53 in SW 2.4 mph 4.6 mph 69 % 0.00 in
09:09 31.4 °F 22.4 °F 30.53 in SSW 1.4 mph 3.5 mph 69 % 0.00 in
09:14 31.5 °F 22.5 °F 30.53 in SW 0.8 mph 3.5 mph 69 % 0.00 in
09:19 31.6 °F 22.6 °F 30.54 in SW 2.0 mph 4.0 mph 69 % 0.00 in
09:24 31.8 °F 22.4 °F 30.53 in SSW 0.1 mph 3.5 mph 68 % 0.00 in
09:29 32.0 °F 22.6 °F 30.53 in SSW 1.0 mph 4.0 mph 68 % 0.00 in
09:35 32.2 °F 22.5 °F 30.54 in SW 2.0 mph 5.0 mph 67 % 0.00 in
09:39 32.5 °F 21.7 °F 30.54 in WSW 2.0 mph 5.0 mph 64 % 0.00 in
09:44 32.7 °F 22.3 °F 30.54 in Calm   3.0 mph 65 % 0.00 in
09:49 33.1 °F 22.3 °F 30.54 in SW 3.0 mph 6.0 mph 64 % 0.00 in
09:54 33.5 °F 22.2 °F 30.54 in WSW 1.6 mph 4.6 mph 63 % 0.00 in
10:00 33.8 °F 22.1 °F 30.54 in WSW 3.1 mph 4.6 mph 62 % 0.00 in
10:05 33.8 °F 22.1 °F 30.54 in SW 3.1 mph 5.0 mph 62 % 0.00 in
10:10 33.8 °F 21.8 °F 30.54 in WSW 0.4 mph 2.3 mph 61 % 0.00 in
10:15 33.8 °F 22.5 °F 30.54 in West 0.5 mph 3.0 mph 63 % 0.00 in
10:20 33.8 °F 22.5 °F 30.54 in WSW 3.0 mph 4.6 mph 63 % 0.00 in
10:25 33.8 °F 22.1 °F 30.54 in West 0.8 mph 2.0 mph 62 % 0.00 in
10:30 33.9 °F 23.0 °F 30.53 in West 3.7 mph 4.0 mph 64 % 0.00 in
10:35 33.8 °F 22.5 °F 30.53 in Calm   2.3 mph 63 % 0.00 in
10:40 33.9 °F 22.2 °F 30.53 in West 1.6 mph 3.5 mph 62 % 0.00 in
10:45 33.9 °F 21.9 °F 30.52 in Calm   1.2 mph 61 % 0.00 in
10:51 34.0 °F 21.6 °F 30.52 in SSE 0.7 mph 3.5 mph 60 % 0.00 in
10:56 34.0 °F 21.2 °F 30.52 in SSW 3.5 mph 6.9 mph 59 % 0.00 in
11:01 34.1 °F 21.3 °F 30.52 in SSW 2.8 mph 3.5 mph 59 % 0.00 in
11:06 34.1 °F 21.3 °F 30.51 in South 1.6 mph 3.5 mph 59 % 0.00 in
11:11 34.3 °F 21.4 °F 30.51 in SSW 3.2 mph 4.6 mph 59 % 0.00 in
11:16 34.6 °F 21.3 °F 30.50 in Calm   2.3 mph 58 % 0.00 in
11:21 34.9 °F 20.8 °F 30.50 in SSE 1.5 mph 5.8 mph 56 % 0.00 in
11:26 35.2 °F 20.6 °F 30.50 in SW 1.3 mph 3.5 mph 55 % 0.00 in
11:31 35.4 °F 19.9 °F 30.50 in SSW 0.6 mph 4.6 mph 53 % 0.00 in
11:36 35.6 °F 20.6 °F 30.50 in SW 5.8 mph 7.0 mph 54 % 0.00 in
11:41 35.6 °F 20.1 °F 30.49 in SW 3.9 mph 5.0 mph 53 % 0.00 in
11:47 35.7 °F 20.7 °F 30.49 in West 2.4 mph 3.5 mph 54 % 0.00 in
11:52 35.7 °F 20.7 °F 30.48 in South 3.6 mph 5.8 mph 54 % 0.00 in
11:57 35.9 °F 20.4 °F 30.48 in SW 2.9 mph 4.6 mph 53 % 0.00 in
12:02 36.0 °F 20.5 °F 30.48 in SW 4.4 mph 6.9 mph 53 % 0.00 in
12:07 36.2 °F 20.7 °F 30.48 in SSW 1.8 mph 3.5 mph 53 % 0.00 in
12:12 36.3 °F 20.8 °F 30.47 in SSW 1.7 mph 4.6 mph 53 % 0.00 in
12:17 36.4 °F 20.9 °F 30.47 in SSW 2.0 mph 4.6 mph 53 % 0.00 in
12:22 36.6 °F 21.1 °F 30.47 in West 4.7 mph 9.2 mph 53 % 0.00 in
12:27 37.0 °F 21.4 °F 30.46 in SSE 2.2 mph 2.3 mph 53 % 0.00 in
12:32 37.1 °F 21.1 °F 30.45 in SE 3.1 mph 5.0 mph 52 % 0.00 in
12:38 37.3 °F 21.7 °F 30.44 in SSW 3.9 mph 5.8 mph 53 % 0.00 in
12:43 37.3 °F 21.3 °F 30.43 in SSE 2.2 mph 3.5 mph 52 % 0.00 in
12:48 37.4 °F 21.4 °F 30.43 in South 3.1 mph 5.8 mph 52 % 0.00 in
12:53 37.3 °F 21.3 °F 30.44 in SSW 2.0 mph 4.0 mph 52 % 0.00 in
12:58 37.4 °F 22.3 °F 30.43 in SSE 2.0 mph 3.5 mph 54 % 0.00 in
13:03 37.3 °F 20.8 °F 30.43 in SSE 1.9 mph 4.0 mph 51 % 0.00 in
13:08 37.0 °F 21.0 °F 30.42 in SSE 1.9 mph 3.5 mph 52 % 0.00 in
13:13 36.9 °F 21.8 °F 30.42 in SE 3.7 mph 6.0 mph 54 % 0.00 in
13:18 36.8 °F 22.1 °F 30.41 in SE 1.3 mph 3.5 mph 55 % 0.00 in
13:23 36.8 °F 21.7 °F 30.41 in SE 1.2 mph 7.0 mph 54 % 0.00 in
13:29 36.7 °F 20.7 °F 30.42 in SSW 2.1 mph 5.8 mph 52 % 0.00 in
13:34 36.7 °F 21.2 °F 30.41 in South 2.1 mph 4.6 mph 53 % 0.00 in
13:39 36.6 °F 21.9 °F 30.41 in SE 2.7 mph 4.6 mph 55 % 0.00 in
13:44 36.6 °F 21.5 °F 30.41 in South 1.6 mph 3.5 mph 54 % 0.00 in
13:49 36.6 °F 21.9 °F 30.41 in SSE 5.2 mph 8.1 mph 55 % 0.00 in
13:54 36.7 °F 22.0 °F 30.42 in SSW 3.4 mph 5.0 mph 55 % 0.00 in
13:59 36.8 °F 21.7 °F 30.42 in WSW 3.6 mph 4.6 mph 54 % 0.00 in
14:04 36.9 °F 21.8 °F 30.42 in SSE 2.1 mph 5.8 mph 54 % 0.00 in
14:09 36.8 °F 22.1 °F 30.43 in SW 3.2 mph 6.9 mph 55 % 0.00 in
14:19 36.8 °F 22.1 °F 30.43 in SSW 1.0 mph 7.0 mph 55 % 0.00 in
14:24 36.7 °F 21.2 °F 30.42 in SW 2.0 mph 7.0 mph 53 % 0.00 in
14:29 36.7 °F 20.7 °F 30.42 in Calm   3.0 mph 52 % 0.00 in
14:34 36.6 °F 21.0 °F 30.42 in SSW 2.0 mph 6.0 mph 53 % 0.00 in
14:39 36.5 °F 21.0 °F 30.42 in South 1.0 mph 4.0 mph 53 % 0.00 in
14:44 36.4 °F 21.3 °F 30.42 in South 1.0 mph 4.0 mph 54 % 0.00 in
14:49 36.3 °F 21.7 °F 30.42 in Calm   3.0 mph 55 % 0.00 in
14:54 36.2 °F 22.4 °F 30.42 in South 2.0 mph 5.0 mph 57 % 0.00 in
15:00 36.1 °F 22.3 °F 30.42 in SSW 1.5 mph 4.0 mph 57 % 0.00 in
15:05 36.0 °F 22.2 °F 30.42 in SW 2.9 mph 3.5 mph 57 % 0.00 in
15:10 35.9 °F 23.0 °F 30.41 in South 2.0 mph 3.5 mph 59 % 0.00 in
15:15 35.8 °F 22.9 °F 30.41 in South 2.4 mph 4.0 mph 59 % 0.00 in
15:20 35.7 °F 23.2 °F 30.41 in South 1.8 mph 3.5 mph 60 % 0.00 in
15:25 35.7 °F 23.2 °F 30.41 in South 1.0 mph 2.3 mph 60 % 0.00 in
15:30 35.7 °F 23.6 °F 30.41 in South 0.5 mph 3.5 mph 61 % 0.00 in
15:35 35.7 °F 23.6 °F 30.41 in Calm     61 % 0.00 in
15:40 35.6 °F 23.5 °F 30.41 in SSW 2.6 mph 3.5 mph 61 % 0.00 in
15:46 35.5 °F 23.4 °F 30.41 in SSW 4.5 mph 5.8 mph 61 % 0.00 in
15:51 35.4 °F 23.7 °F 30.41 in SSW 4.3 mph 8.1 mph 62 % 0.00 in
15:56 35.2 °F 23.5 °F 30.41 in SW 1.8 mph 3.5 mph 62 % 0.00 in
16:01 35.2 °F 23.5 °F 30.41 in West 1.3 mph 3.5 mph 62 % 0.00 in
16:06 35.1 °F 23.4 °F 30.41 in SSW 3.7 mph 6.9 mph 62 % 0.00 in
16:11 35.0 °F 23.7 °F 30.41 in SSW 2.5 mph 4.0 mph 63 % 0.00 in
16:16 34.9 °F 23.6 °F 30.41 in WSW 5.4 mph 8.1 mph 63 % 0.00 in
16:21 34.8 °F 23.9 °F 30.41 in SSW 3.8 mph 8.1 mph 64 % 0.00 in
16:26 34.7 °F 24.5 °F 30.41 in SW 3.9 mph 5.8 mph 66 % 0.00 in
16:31 34.6 °F 24.4 °F 30.41 in SSW 1.6 mph 3.5 mph 66 % 0.00 in
16:36 34.5 °F 24.7 °F 30.41 in SSW 2.3 mph 3.5 mph 67 % 0.00 in
16:41 34.4 °F 24.6 °F 30.41 in SSW 3.8 mph 6.9 mph 67 % 0.00 in
16:47 34.3 °F 24.5 °F 30.41 in Calm   3.5 mph 67 % 0.00 in
16:52 34.2 °F 24.7 °F 30.41 in South 1.2 mph 4.0 mph 68 % 0.00 in
16:57 34.1 °F 24.6 °F 30.40 in SSW 3.3 mph 5.8 mph 68 % 0.00 in
17:02 34.1 °F 25.0 °F 30.40 in WSW 1.7 mph 4.6 mph 69 % 0.00 in
17:07 34.0 °F 24.9 °F 30.41 in WSW 2.5 mph 5.8 mph 69 % 0.00 in
17:12 33.9 °F 25.1 °F 30.40 in SSW 3.3 mph 5.8 mph 70 % 0.00 in
17:17 33.9 °F 25.5 °F 30.41 in SW 2.1 mph 3.5 mph 71 % 0.00 in
17:22 33.9 °F 25.8 °F 30.41 in SW 1.6 mph 3.5 mph 72 % 0.00 in
17:27 33.8 °F 25.7 °F 30.41 in SSW 2.6 mph 4.0 mph 72 % 0.00 in
17:32 33.7 °F 26.0 °F 30.41 in SW 4.1 mph 5.8 mph 73 % 0.00 in
17:37 33.6 °F 26.5 °F 30.41 in SW 1.4 mph 3.5 mph 75 % 0.00 in
17:42 33.5 °F 26.4 °F 30.41 in SW 3.2 mph 4.6 mph 75 % 0.00 in
17:47 33.4 °F 27.0 °F 30.41 in WSW 2.5 mph 3.5 mph 77 % 0.00 in
17:52 33.3 °F 27.2 °F 30.41 in SW 3.4 mph 4.0 mph 78 % 0.00 in
17:58 33.2 °F 27.7 °F 30.41 in SW 3.0 mph 4.6 mph 80 % 0.00 in
18:03 33.0 °F 27.8 °F 30.41 in SSW 2.8 mph 4.6 mph 81 % 0.00 in
18:08 32.9 °F 28.0 °F 30.40 in WSW 0.1 mph 2.3 mph 82 % 0.00 in
18:13 32.8 °F 28.2 °F 30.40 in WSW 1.2 mph 3.5 mph 83 % 0.00 in
18:18 32.6 °F 28.0 °F 30.40 in SW 2.5 mph 3.5 mph 83 % 0.00 in
18:23 32.5 °F 28.2 °F 30.40 in SW 1.0 mph 3.0 mph 84 % 0.00 in
18:28 32.4 °F 28.1 °F 30.40 in WSW 0.9 mph 2.3 mph 84 % 0.00 in
18:33 32.4 °F 28.4 °F 30.40 in WSW 0.4 mph 2.3 mph 85 % 0.00 in
18:38 32.3 °F 28.3 °F 30.40 in SW 0.2 mph 2.3 mph 85 % 0.00 in
18:43 32.2 °F 28.5 °F 30.39 in SSW 1.6 mph 3.0 mph 86 % 0.00 in
18:49 32.1 °F 28.4 °F 30.39 in Calm     86 % 0.00 in
18:54 32.1 °F 28.7 °F 30.39 in SW 0.7 mph 2.3 mph 87 % 0.00 in
18:59 32.0 °F 28.6 °F 30.39 in SW 0.5 mph 1.2 mph 87 % 0.00 in
19:04 32.0 °F 28.8 °F 30.39 in SW 2.1 mph 3.5 mph 88 % 0.00 in
19:09 31.9 °F 28.8 °F 30.38 in SW 0.1 mph 1.2 mph 88 % 0.00 in
19:14 31.9 °F 28.8 °F 30.38 in SW 0.8 mph 2.0 mph 88 % 0.00 in
19:19 31.9 °F 28.8 °F 30.38 in SW 0.2 mph 1.2 mph 88 % 0.00 in
19:24 31.9 °F 28.8 °F 30.38 in Calm     88 % 0.00 in
19:29 31.8 °F 28.7 °F 30.37 in SW 0.3 mph 1.2 mph 88 % 0.00 in
19:34 31.8 °F 28.9 °F 30.37 in Calm   3.0 mph 89 % 0.00 in
19:39 31.8 °F 28.9 °F 30.37 in Calm   2.0 mph 89 % 0.00 in
19:44 31.8 °F 28.9 °F 30.37 in Calm   1.0 mph 89 % 0.00 in
19:49 31.8 °F 28.9 °F 30.37 in Calm     89 % 0.00 in
19:54 31.8 °F 28.9 °F 30.36 in Calm     89 % 0.00 in
19:59 31.8 °F 28.9 °F 30.35 in Calm     89 % 0.00 in
20:04 31.8 °F 28.9 °F 30.36 in Calm     89 % 0.00 in
20:09 31.7 °F 29.1 °F 30.35 in Calm     90 % 0.00 in
20:14 31.7 °F 29.1 °F 30.34 in Calm   1.0 mph 90 % 0.00 in
20:19 31.7 °F 29.1 °F 30.34 in Calm   1.0 mph 90 % 0.00 in
20:24 31.7 °F 29.1 °F 30.34 in Calm   1.0 mph 90 % 0.00 in
20:29 31.7 °F 29.1 °F 30.33 in Calm   1.0 mph 90 % 0.00 in
20:34 31.7 °F 29.1 °F 30.33 in Calm     90 % 0.00 in
20:39 31.6 °F 29.3 °F 30.33 in Calm   1.0 mph 91 % 0.00 in
20:44 31.6 °F 29.3 °F 30.33 in Calm   1.0 mph 91 % 0.00 in
20:49 31.6 °F 29.3 °F 30.32 in SW 0.8 mph 1.2 mph 91 % 0.00 in
20:55 31.6 °F 29.3 °F 30.32 in Calm   2.0 mph 91 % 0.00 in
21:00 31.6 °F 29.3 °F 30.31 in Calm   1.2 mph 91 % 0.00 in
21:05 31.6 °F 29.5 °F 30.31 in SE 0.2 mph 2.3 mph 92 % 0.00 in
21:10 31.6 °F 29.5 °F 30.31 in SE 0.1 mph 1.2 mph 92 % 0.00 in
21:15 31.6 °F 29.5 °F 30.31 in SE 0.4 mph 1.2 mph 92 % 0.00 in
21:20 31.6 °F 29.5 °F 30.30 in SE 0.2 mph 1.0 mph 92 % 0.00 in
21:25 31.6 °F 29.5 °F 30.30 in SE 0.1 mph 1.2 mph 92 % 0.00 in
21:30 31.6 °F 29.5 °F 30.30 in SE 0.6 mph 2.3 mph 92 % 0.00 in
21:35 31.6 °F 29.5 °F 30.30 in SE 0.8 mph 1.2 mph 92 % 0.00 in
21:40 31.6 °F 29.5 °F 30.29 in ESE 0.7 mph 2.3 mph 92 % 0.00 in
21:45 31.6 °F 29.5 °F 30.30 in Calm   1.2 mph 92 % 0.00 in
21:51 31.6 °F 29.5 °F 30.30 in Calm     92 % 0.00 in
21:56 31.7 °F 29.9 °F 30.30 in Calm   1.2 mph 93 % 0.00 in
22:01 31.7 °F 29.9 °F 30.30 in Calm     93 % 0.00 in
22:06 31.7 °F 29.9 °F 30.29 in Calm   1.0 mph 93 % 0.00 in
22:11 31.7 °F 29.9 °F 30.29 in Calm   1.2 mph 93 % 0.00 in
22:16 31.7 °F 29.9 °F 30.29 in Calm   1.2 mph 93 % 0.00 in
22:21 31.7 °F 29.9 °F 30.29 in ESE 0.5 mph 1.2 mph 93 % 0.00 in
22:26 31.7 °F 29.9 °F 30.28 in Calm   2.3 mph 93 % 0.00 in
22:31 31.7 °F 29.9 °F 30.28 in Calm     93 % 0.00 in
22:36 31.8 °F 30.0 °F 30.28 in ESE 0.7 mph 1.2 mph 93 % 0.00 in
22:41 31.8 °F 30.0 °F 30.28 in ESE 0.7 mph 2.3 mph 93 % 0.00 in
22:46 31.8 °F 30.0 °F 30.27 in ESE 0.3 mph 2.3 mph 93 % 0.00 in
22:52 31.9 °F 30.1 °F 30.27 in ESE 0.3 mph 2.3 mph 93 % 0.00 in
23:02 31.9 °F 30.1 °F 30.25 in Calm   1.2 mph 93 % 0.00 in
23:07 32.0 °F 30.2 °F 30.25 in ESE 0.1 mph 1.2 mph 93 % 0.00 in
23:12 32.0 °F 30.5 °F 30.24 in ESE 0.1 mph 1.2 mph 94 % 0.00 in
23:17 32.1 °F 30.6 °F 30.24 in ESE 0.1 mph 2.3 mph 94 % 0.00 in
23:22 32.1 °F 30.6 °F 30.24 in SE 0.4 mph 3.5 mph 94 % 0.00 in
23:27 32.2 °F 30.7 °F 30.23 in Calm   2.3 mph 94 % 0.00 in
23:32 32.3 °F 30.8 °F 30.23 in Calm   2.3 mph 94 % 0.00 in
23:37 32.4 °F 30.9 °F 30.22 in SE 0.7 mph 4.0 mph 94 % 0.00 in
23:43 32.4 °F 30.9 °F 30.21 in ESE 0.9 mph 2.3 mph 94 % 0.00 in
23:48 32.5 °F 31.0 °F 30.21 in SE 0.3 mph 2.3 mph 94 % 0.00 in
23:53 32.5 °F 31.0 °F 30.21 in SE 0.2 mph 2.3 mph 94 % 0.00 in
23:58 32.6 °F 31.1 °F 30.20 in SE 0.3 mph 1.2 mph 94 % 0.00 in
Crab Meadow Weather
Compliments of Weather Underground - 3 mb

Script developed by  Jim McMurry - jmcmurry@mwt.net Adapted for the template by  Wim van der Kuil - Leuven-Template.eu

Weather Terms: Degree Day - Gauges the amount of heating or cooling needed for a building using 65 degrees as a baseline. To compute degree days, the average temperature for a day is taken and referenced to 65. An average temperature of 50 yields 15 heating degree days, while an average temperature of 75 would yield 10 cooling degree days.